TimeCDT,TemperatureF,Dew PointF,Humidity,Sea Level PressureIn,VisibilityMPH,Wind Direction,Wind SpeedMPH,Gust SpeedMPH,PrecipitationIn,Events,Conditions,WindDirDegrees,DateUTC
12:58 AM,65.8,55.4,69,29.89,10.0,WSW,5.8,-,N/A,,Clear,240,2013-05-15 05:58:00
1:58 AM,69.4,51.6,53,29.89,10.0,WSW,5.8,-,N/A,,Clear,240,2013-05-15 06:58:00
2:58 AM,64.8,53.6,67,29.90,10.0,SSW,4.6,-,N/A,,Clear,210,2013-05-15 07:58:00
3:58 AM,66.2,53.4,63,29.91,10.0,SW,3.5,-,N/A,,Clear,220,2013-05-15 08:58:00
4:58 AM,66.6,54.0,64,29.93,10.0,WSW,5.8,-,N/A,,Clear,240,2013-05-15 09:58:00
5:58 AM,60.1,55.0,83,29.94,10.0,SSW,3.5,-,N/A,,Clear,210,2013-05-15 10:58:00
6:58 AM,66.2,57.4,73,29.95,10.0,SSW,5.8,-,N/A,,Clear,210,2013-05-15 11:58:00
7:58 AM,72.9,57.4,58,29.95,10.0,WSW,9.2,-,N/A,,Clear,240,2013-05-15 12:58:00
8:58 AM,77.0,56.7,49,29.95,10.0,WSW,12.7,-,N/A,,Clear,240,2013-05-15 13:58:00
9:58 AM,80.1,59.0,48,29.94,10.0,WSW,10.4,-,N/A,,Clear,250,2013-05-15 14:58:00
10:58 AM,82.8,60.4,47,29.94,10.0,WSW,10.4,-,N/A,,Clear,250,2013-05-15 15:58:00
11:58 AM,84.9,61.3,45,29.93,10.0,SW,11.5,18.4,N/A,,Clear,220,2013-05-15 16:58:00
12:58 PM,86.4,62.1,44,29.90,10.0,SW,10.4,-,N/A,,Clear,230,2013-05-15 17:58:00
1:58 PM,88.0,63.0,43,29.88,10.0,SSW,15.0,20.7,N/A,,Partly Cloudy,210,2013-05-15 18:58:00
2:58 PM,88.3,62.8,42,29.87,10.0,SW,10.4,18.4,N/A,,Clear,220,2013-05-15 19:58:00
3:33 PM,87.8,64.4,46,29.86,10.0,SW,15.0,-,N/A,,Clear,230,2013-05-15 20:33:00
3:44 PM,87.8,62.6,43,29.85,10.0,South,12.7,18.4,N/A,,Clear,180,2013-05-15 20:44:00
3:50 PM,87.8,62.6,43,29.85,10.0,SW,12.7,-,N/A,,Clear,220,2013-05-15 20:50:00
3:51 PM,87.8,62.6,43,29.85,10.0,SW,11.5,-,N/A,,Clear,230,2013-05-15 20:51:00
3:58 PM,88.5,63.1,43,29.85,10.0,SSW,10.4,-,N/A,,Clear,200,2013-05-15 20:58:00
4:58 PM,86.7,64.4,47,29.83,10.0,South,13.8,-,N/A,,Clear,190,2013-05-15 21:58:00
5:58 PM,84.0,65.1,53,29.83,10.0,South,16.1,-,N/A,,Clear,180,2013-05-15 22:58:00
6:58 PM,82.2,62.1,50,29.83,10.0,South,9.2,-,N/A,,Clear,190,2013-05-15 23:58:00
7:58 PM,79.5,63.9,59,29.85,10.0,South,10.4,-,N/A,,Clear,190,2013-05-16 00:58:00
8:58 PM,77.5,64.4,64,29.86,10.0,SSW,8.1,-,N/A,,Clear,200,2013-05-16 01:58:00
9:58 PM,75.6,64.8,69,29.87,10.0,SSW,8.1,-,N/A,,Clear,200,2013-05-16 02:58:00
10:58 PM,73.8,65.3,75,29.86,10.0,SSW,5.8,-,N/A,,Clear,200,2013-05-16 03:58:00
11:58 PM,72.9,65.3,77,29.88,10.0,SW,4.6,-,N/A,,Clear,220,2013-05-16 04:58:00